Flag for Russia Weather past 2 weeks in Kaliningrad, Russia

Now
52 °F

Broken clouds.


Feels Like: 46 °F
Forecast: 46 / 58 °F
Wind: 17 mph from North

Location: Kaliningrad/Khrabrovo Airport

Current Time: Sep 23, 2014 at 3:52:03 PM

Latest Report: Sep 23, 2014 at 3:00 PM


Visibility: N/A

Pressure: 29.83 "Hg

Humidity: 47%

Dew point: 32 °F

Location of KaliningradLocation

Historic Weather in Kaliningrad — Graph

°F

Kaliningrad temperature yesterday

Maximum temperature yesterday: 63 °F (at 2:30 PM)
Minimum temperature yesterday: 52 °F (at 8:00 PM)
Average temperature yesterday: 57 °F

Past Weeks' High & Low Weather Summary

 TemperatureHumidityPressure
High75 °F (Sep 8, 2:00 PM)94% (Sep 8, 9:30 PM)30.33 "Hg (Sep 8, 9:30 PM)
Low41 °F (Sep 21, 7:30 AM)38% (Sep 17, 5:00 PM)29.53 "Hg (Sep 22, 7:30 AM)
Average59 °F76%30.05 "Hg
* Reported Sep 8 2:00 PM — Sep 23 2:30 PM, Kaliningrad, Weather by CustomWeather, © 2014

Note: Actual official high and low records may vary slightly from our data, if they occured in-between our weather recording intervals... More about our weather records

Advertising

Kaliningrad weather history for previous 24 hours

 ConditionsComfort  
Time TempWeatherWind HumidityBarometerVisibility
2:30 PM
Sep 23
54 °FBroken clouds.15 mph51%29.80 "HgN/A
2:00 PM54 °FBroken clouds.22 mph44%29.80 "HgN/A
1:00 PM52 °FBroken clouds.17 mph58%29.77 "HgN/A
12:30 PM52 °FBroken clouds.17 mph54%29.77 "HgN/A
12:00 PM55 °FPartly sunny.17 mph47%29.74 "HgN/A
11:30 AM54 °FPartly sunny.20 mph58%29.74 "HgN/A
11:00 AM54 °FMostly cloudy.15 mph54%29.71 "HgN/A
10:30 AM52 °FMostly cloudy.17 mph58%29.71 "HgN/A
10:00 AM54 °FMostly cloudy.20 mph58%29.71 "HgN/A
9:30 AM54 °FMostly cloudy.17 mph63%29.68 "HgN/A
9:00 AM54 °FMostly cloudy.15 mph67%29.68 "HgN/A
8:30 AM54 °FMostly cloudy.22 mph72%29.65 "HgN/A
8:00 AM54 °FSprinkles. Mostly cloudy.22 mph77%29.65 "Hg4 mi
7:30 AM52 °FSprinkles. Mostly cloudy.17 mph88%29.62 "Hg2 mi
7:00 AM54 °FSprinkles. Mostly cloudy.17 mph88%29.62 "Hg2 mi
6:30 AM52 °FSprinkles. Mostly cloudy.8 mph88%29.62 "Hg3 mi
6:00 AM54 °FSprinkles. Mostly cloudy.10 mph82%29.59 "Hg2 mi
5:30 AM54 °FSprinkles. Passing clouds.8 mph82%29.59 "Hg4 mi
5:00 AM55 °FPassing clouds.8 mph82%29.59 "HgN/A
4:30 AM54 °FPartly cloudy.3 mph88%29.56 "Hg4 mi
4:00 AM52 °FSprinkles. Fog.6 mph88%29.56 "Hg3 mi
3:30 AM48 °FFog.6 mph94%29.56 "Hg2 mi
2:30 AM50 °FPartly cloudy.6 mph88%29.59 "HgN/A
2:00 AM52 °FPartly cloudy.6 mph88%29.59 "HgN/A
1:30 AM54 °FPassing clouds.6 mph88%29.59 "HgN/A
1:00 AM54 °FPartly cloudy.6 mph88%29.59 "HgN/A
12:30 AM54 °FPartly cloudy.6 mph88%29.59 "HgN/A
12:00 AM54 °FPartly cloudy.8 mph88%29.59 "HgN/A
11:30 PM
Sep 22
54 °FPartly cloudy.8 mph88%29.59 "HgN/A
11:00 PM54 °FPartly cloudy.8 mph82%29.59 "HgN/A
10:30 PM54 °FPassing clouds.10 mph88%29.59 "HgN/A
10:00 PM54 °FPassing clouds.8 mph82%29.59 "HgN/A
9:30 PM54 °FPartly sunny.6 mph82%29.59 "HgN/A
9:00 PM52 °FPartly sunny.3 mph82%29.62 "HgN/A
8:30 PM52 °FPartly sunny.6 mph82%29.62 "HgN/A
8:00 PM52 °FScattered clouds.8 mph82%29.62 "HgN/A
7:30 PM55 °FScattered clouds.8 mph72%29.62 "HgN/A
7:00 PM57 °FScattered clouds.8 mph67%29.62 "HgN/A
6:30 PM57 °FScattered clouds.8 mph67%29.59 "HgN/A
6:00 PM59 °FPartly sunny.10 mph59%29.59 "HgN/A
5:30 PM57 °FPartly sunny.8 mph67%29.59 "HgN/A
5:00 PM57 °FPartly sunny.10 mph67%29.59 "HgN/A
4:30 PM57 °FPartly sunny.10 mph72%29.59 "HgN/A
4:00 PM57 °FPartly sunny.13 mph72%29.59 "HgN/A
3:30 PM59 °FSprinkles. Partly sunny.13 mph77%29.59 "HgN/A
3:00 PM61 °FPartly sunny.8 mph68%29.59 "HgN/A
Weather by CustomWeather, © 2014

See weather overviewHow to use our weather pages